Location: Colebrook
(42.0017°N, 73.0973°W)
Time: 03:30:38
(UTC-04:00)

deb Explorer IX - All Passes

Search period start: 21 October 2021 00:00
Search period end: 31 October 2021 00:00
Orbit: 546 x 1088 km, 38.8° (Epoch: 20 October)

Date Brightness Start Highest point End Pass type
(mag) Time Alt. Az. Time Alt. Az. Time Alt. Az.
21 Oct - 04:00:40 10° SSW 04:06:23 30° SSE 04:11:30 10° E visible
21 Oct - 05:46:48 10° WSW 05:53:01 56° S 05:58:20 10° E visible
21 Oct - 07:34:01 10° W 07:39:45 60° S 07:44:37 10° ESE daylight
21 Oct - 09:21:30 10° W 09:26:05 31° SSW 09:30:07 10° SE daylight
22 Oct - 03:35:56 10° SSW 03:41:47 30° SSE 03:47:04 10° E visible
22 Oct - 05:22:04 10° WSW 05:28:27 57° S 05:33:57 10° E visible
22 Oct - 07:09:17 10° W 07:15:14 61° S 07:20:16 10° ESE daylight
22 Oct - 08:56:49 10° W 09:01:37 32° SSW 09:05:48 10° SE daylight
23 Oct - 03:11:12 10° SSW 03:17:10 31° SSE 03:22:37 10° E visible
23 Oct - 04:57:19 10° WSW 05:03:51 58° S 05:09:32 10° E visible
23 Oct - 06:44:34 10° W 06:50:41 62° S 06:55:54 10° ESE visible
23 Oct - 08:32:08 10° W 08:37:07 33° SSW 08:41:28 10° SE daylight
24 Oct - 01:06:12 10° SE 01:06:19 10° SE 01:06:27 10° SE night (unlit)
24 Oct - 02:46:27 10° SSW 02:52:31 31° SSE 02:58:06 10° E visible
24 Oct - 04:32:33 10° WSW 04:39:14 58° S 04:45:05 10° E visible
24 Oct - 06:19:49 10° W 06:26:07 63° S 06:31:30 10° ESE visible
24 Oct - 08:07:23 10° W 08:12:35 34° SSW 08:17:07 10° SE daylight
25 Oct - 00:41:06 10° SE 00:41:40 10° SE 00:42:15 10° SE night (unlit)
25 Oct - 02:21:42 10° SSW 02:27:51 32° SSE 02:33:35 10° E visible
25 Oct - 04:07:47 10° WSW 04:14:36 59° SSE 04:20:37 10° E visible
25 Oct - 05:55:03 10° W 06:01:32 64° S 06:07:04 10° ESE visible
25 Oct - 07:42:38 10° W 07:48:03 36° SSW 07:52:44 10° SE daylight
26 Oct - 00:16:21 10° SE 00:17:01 10° SE 00:17:41 10° SE night (unlit)
26 Oct - 01:56:57 10° SSW 02:03:10 32° SSE 02:09:02 10° E visible
26 Oct - 03:43:01 10° WSW 03:49:56 59° SSE 03:56:06 10° E visible
26 Oct - 05:30:15 10° W 05:36:54 65° S 05:42:37 10° ESE visible
26 Oct - 07:17:51 10° W 07:23:28 37° SSW 07:28:21 10° SE daylight
26 Oct - 09:07:58 10° SW 09:09:11 11° SW 09:10:22 10° SSW daylight
26 Oct - 23:51:46 10° SE 23:52:20 10° SE 23:52:55 10° SE night (unlit)
27 Oct - 01:32:13 10° SSW 01:38:27 32° SSE 01:44:25 10° E night (unlit)
27 Oct - 03:18:14 10° WSW 03:25:13 60° SSE 03:31:34 10° E visible
27 Oct - 05:05:28 10° W 05:12:14 65° S 05:18:09 10° ESE visible
27 Oct - 06:53:03 10° W 06:58:52 38° SSW 07:03:55 10° SE visible
27 Oct - 08:42:49 10° WSW 08:44:37 11° SW 08:46:21 10° SSW daylight
28 Oct - 01:07:29 10° SSW 01:13:44 32° SSE 01:19:47 10° E night (unlit)
28 Oct - 02:53:27 10° WSW 03:00:30 60° SSE 03:07:00 10° E visible
28 Oct - 04:40:39 10° W 04:47:34 66° S 04:53:38 10° ESE visible
28 Oct - 06:28:14 10° W 06:34:14 39° SSW 06:39:29 10° SE visible
28 Oct - 08:17:45 10° WSW 08:20:02 12° SW 08:22:12 10° SSW daylight
29 Oct - 00:42:45 10° SSW 00:48:59 32° SSE 00:55:07 10° E night (unlit)
29 Oct - 02:28:40 10° WSW 02:35:46 60° SSE 02:42:24 10° E visible
29 Oct - 04:15:50 10° W 04:22:51 66° S 04:29:06 10° ESE visible
29 Oct - 06:03:24 10° W 06:09:35 40° SSW 06:15:00 10° SE visible
29 Oct - 07:52:45 10° WSW 07:55:25 13° SW 07:57:57 10° SSW daylight
30 Oct - 00:18:02 10° SSW 00:24:13 32° SSE 00:30:25 10° E night (unlit)
30 Oct - 02:03:53 10° WSW 02:11:00 60° SSE 02:17:45 10° E visible
30 Oct - 03:51:01 10° W 03:58:06 67° S 04:04:31 10° ESE visible
30 Oct - 05:38:33 10° W 05:44:53 41° SSW 05:50:30 10° SE visible
30 Oct - 07:27:46 10° WSW 07:30:48 14° SW 07:33:39 10° SSW daylight
